Погода в Панфилове

Россия / Владимирская область     55°59′54″N   39°04′57″E
темп.,
°C
ветер,
м/с
пор.,
м/с
влажн.,
%
обл.,
%
осадки,
мм/ч
давл.,
гПа
погр.,
м
6 мая, чт
чт600:00+8ю249892 1.9 1008101
03:00+7ю269731 2.0 1008117
06:00+8ююв3995100 0.0 1007252
09:00+12ю51482100 0.1 1007706
12:00+16ююз71558100 0.1 10051866
15:00+12ю81776100 1.1 10051700
18:00+13ююз91565100 0.1 10041659
21:00+9юз61191100 0.7 10061087
7 мая, пт
пт700:00+6ююз3993100 0.1 1008373
03:00+5юз3996100 0.1 1009388
06:00+6юз389594 0.0 1010424
09:00+10зюз47605 0.0 10111344
12:00+13зюз57415 0.0 10122033
15:00+14юз583695 0.0 10122630
18:00+13юз485210 0.1 10121722
21:00+8ю31076100 0.1 1013232
8 мая, сб
сб800:00+7ююв31275100 0.0 1013334
03:00+8ююв4146997 0.0 1012463
06:00+8ююв51565100 0.0 1010676
09:00+11ююв51365100 0.0 10091376
12:00+9юв71792100 4.1 10061327
15:00+9ююв61495100 6.5 1004946
18:00+10ю41097100 3.6 1002616
21:00+9юз51089100 4.1 1002853
9 мая, вс
вс900:00+5юз51190100 0.0 1004957
03:00+4зюз51290100 0.1 10061257
06:00+5зюз61185100 0.1 10091036
09:00+6зюз597697 0.1 10121021
12:00+11зсз5749100 0.0 10141644
15:00+12сз5739100 0.0 10162267
18:00+11сз465283 0.0 10191495
21:00+5ссз22751 0.0 102336
10 мая, пн
пн1000:00+3сз22771 0.0 102436
03:00+2ссз22810 0.0 102740
06:00+4с12755 0.0 102874
09:00+11вюв01493 0.0 1029689
12:00+15с11365 0.0 10291388
15:00+16с123437 0.0 10291672
18:00+15вюв23493 0.0 1028259
21:00+8вюв22700 0.0 102923